Eagle River, WI

2:28 PM CST on December 10, 2016 (GMT -0600)
Eagle River Union

Weather History for KEGV - October, 2013

Change the Weather History Date:

Friday, October 4, 2013

  Actual Average Record
Temperature  
Mean Temperature 54 °F -  
Max Temperature 58 °F 61 °F 75 °F (2007)
Min Temperature 50 °F 35 °F 19 °F (1999)
Degree Days  
Heating Degree Days 11    
Growing Degree Days 4 (Base 50)    
Moisture  
Dew Point 50 °F    
Average Humidity 92    
Maximum Humidity 100    
Minimum Humidity 70    
Precipitation  
Precipitation 0.18 in - - ()
Sea Level Pressure  
Sea Level Pressure 30.05 in    
Wind  
Wind Speed 7 mph (ENE)    
Max Wind Speed 14 mph    
Max Gust Speed 18 mph    
Visibility 8 miles    
Events Rain    
Averages and records for this station are not official NWS values.
T = Trace of Precipitation, MM = Missing Value Source: NWS Daily Summary

Daily Weather History Graph

Daily Weather History Graph

Search for Another Location

Airport or City:

Trip Planner

Search our weather history database for the weather conditions in past years. The results will help you decide how hot, cold, wet, or windy it might be!

Date:

Astronomy

Oct. 04, 2013 Rise Set
Actual Time 6:59 AM CDT 6:30 PM CDT
Civil Twilight 6:29 AM CDT 7:00 PM CDT
Nautical Twilight 5:55 AM CDT 7:35 PM CDT
Astronomical Twilight 5:20 AM CDT 8:10 PM CDT
Moon 6:35 AM CDT (10/4) 6:11 PM CDT (10/4)
Length of Visible Light 12h 30m
Length of Day
11h 31m
Waning Crescent, 0% of the Moon is Illuminated
Oct 4
Waning Crescent
Oct 4
New
Oct 11
First Quarter
Oct 18
Full
Oct 26
Last Quarter

Hourly Weather History & Observations

Time (CDT) Temp. Dew Point Humidity Pressure Visibility Wind Dir Wind Speed Gust Speed Precip Events Conditions
12:15 AM 50.9 °F 50.2 °F 97% 29.97 in 10.0 mi NE 5.8 mph - N/A   Overcast
12:35 AM 50.9 °F 50.4 °F 98% 29.97 in 10.0 mi NE 4.6 mph - N/A   Light Drizzle
12:55 AM 50.7 °F 50.4 °F 99% 29.98 in 10.0 mi NNE 5.8 mph - N/A Rain Light Rain
1:15 AM 50.5 °F 50.4 °F 99% 29.98 in 7.0 mi NNE 5.8 mph - 0.03 in Rain Heavy Rain
1:35 AM 50.5 °F 50.5 °F 100% 29.99 in 10.0 mi NE 3.5 mph - 0.05 in Rain Light Rain
1:55 AM 50.9 °F 50.9 °F 100% 30.00 in 10.0 mi NNE 5.8 mph - 0.05 in   Overcast
2:15 AM 50.9 °F 50.9 °F 100% 30.00 in 10.0 mi NNE 5.8 mph - N/A   Overcast
2:35 AM 51.1 °F 50.9 °F 99% 30.00 in 10.0 mi NE 8.1 mph - N/A   Overcast
2:55 AM 51.1 °F 50.9 °F 99% 30.01 in 10.0 mi ENE 5.8 mph - N/A Rain Light Rain
3:15 AM 51.1 °F 50.7 °F 99% 30.01 in 10.0 mi NE 5.8 mph - 0.01 in   Light Drizzle
3:35 AM 50.9 °F 50.9 °F 100% 30.00 in 10.0 mi NE 6.9 mph - 0.01 in Rain Light Rain
3:55 AM 50.9 °F 50.5 °F 99% 30.01 in 10.0 mi NE 5.8 mph - 0.01 in Rain Light Rain
4:15 AM 50.9 °F 50.5 °F 99% 30.02 in 10.0 mi NE 6.9 mph - N/A Rain Rain
4:35 AM 50.5 °F 50.5 °F 100% 30.02 in 10.0 mi NE 6.9 mph - N/A   Overcast
4:55 AM 50.5 °F 50.4 °F 99% 30.01 in 10.0 mi NE 6.9 mph - N/A   Overcast
5:15 AM 50.9 °F 50.5 °F 99% 30.02 in 10.0 mi ENE 6.9 mph - N/A   Overcast
5:35 AM 51.1 °F 50.9 °F 99% 30.03 in 10.0 mi ENE 8.1 mph - N/A   Overcast
5:55 AM 51.1 °F 50.5 °F 98% 30.02 in 10.0 mi ENE 9.2 mph - N/A   Overcast
6:15 AM 51.1 °F 50.4 °F 97% 30.03 in 10.0 mi ENE 9.2 mph - N/A   Overcast
6:35 AM 51.1 °F 50.0 °F 96% 30.03 in 7.0 mi ENE 6.9 mph - N/A   Overcast
6:55 AM 50.9 °F 50.0 °F 97% 30.03 in 10.0 mi ENE 6.9 mph - N/A   Overcast
7:35 AM 50.9 °F 50.0 °F 97% 30.04 in 10.0 mi NE 8.1 mph - N/A   Light Drizzle
7:55 AM 51.1 °F 50.0 °F 96% 30.05 in 10.0 mi ENE 6.9 mph - N/A   Overcast
8:15 AM 51.8 °F 50.2 °F 94% 30.05 in 10.0 mi East 8.1 mph - N/A   Overcast
8:35 AM 51.8 °F 50.0 °F 94% 30.05 in 7.0 mi ENE 8.1 mph - N/A   Overcast
8:55 AM 52.3 °F 50.2 °F 92% 30.06 in 10.0 mi NE 8.1 mph - N/A   Overcast
9:15 AM 52.7 °F 50.0 °F 91% 30.06 in 10.0 mi NE 11.5 mph - N/A   Overcast
9:35 AM 53.1 °F 49.5 °F 88% 30.06 in 10.0 mi NE 8.1 mph 16.1 mph N/A   Overcast
9:55 AM 53.4 °F 49.8 °F 88% 30.07 in 10.0 mi NE 8.1 mph - N/A   Overcast
10:15 AM 54.0 °F 49.8 °F 86% 30.07 in 10.0 mi ENE 9.2 mph - N/A   Overcast
10:35 AM 54.5 °F 49.5 °F 83% 30.06 in 10.0 mi ENE 11.5 mph 16.1 mph N/A   Overcast
10:55 AM 55.0 °F 49.5 °F 81% 30.06 in 10.0 mi ENE 9.2 mph - N/A   Overcast
11:15 AM 54.7 °F 49.6 °F 83% 30.07 in 5.0 mi ENE 12.7 mph - N/A   Haze
11:35 AM 54.7 °F 49.8 °F 84% 30.07 in 5.0 mi ENE 8.1 mph - N/A   Haze
11:55 AM 55.0 °F 49.8 °F 83% 30.07 in 7.0 mi ENE 6.9 mph - N/A   Overcast
12:15 PM 55.4 °F 50.0 °F 82% 30.08 in 7.0 mi NE 9.2 mph - N/A   Overcast
12:35 PM 55.6 °F 50.4 °F 83% 30.08 in 7.0 mi East 9.2 mph - N/A   Overcast
12:55 PM 56.3 °F 50.2 °F 80% 30.08 in 5.0 mi East 8.1 mph - N/A   Haze
1:15 PM 56.5 °F 49.8 °F 78% 30.07 in 2.5 mi ENE 9.2 mph - N/A   Haze
1:35 PM 56.8 °F 49.8 °F 77% 30.07 in 3.0 mi East 13.8 mph - N/A   Haze
1:55 PM 56.7 °F 50.2 °F 79% 30.07 in 3.0 mi East 9.2 mph - N/A   Haze
2:15 PM 56.7 °F 48.7 °F 75% 30.07 in 2.5 mi East 10.4 mph - N/A   Haze
2:35 PM 57.2 °F 49.5 °F 75% 30.06 in 4.0 mi East 8.1 mph - N/A   Haze
2:55 PM 57.4 °F 48.6 °F 72% 30.06 in 3.0 mi ENE 13.8 mph - N/A   Haze
3:15 PM 58.1 °F 48.4 °F 70% 30.05 in 4.0 mi East 10.4 mph 18.4 mph N/A   Haze
3:35 PM 57.4 °F 48.2 °F 71% 30.05 in 3.0 mi ENE 11.5 mph - N/A   Haze
3:55 PM 57.0 °F 48.2 °F 72% 30.05 in 10.0 mi East 10.4 mph - N/A   Overcast
4:15 PM 56.7 °F 48.2 °F 73% 30.05 in 10.0 mi East 9.2 mph - N/A   Overcast
4:35 PM 55.9 °F 48.4 °F 76% 30.06 in 10.0 mi East 6.9 mph - N/A Rain Light Rain
4:55 PM 54.1 °F 52.0 °F 92% 30.07 in 4.0 mi East 6.9 mph - 0.02 in Rain Rain
5:15 PM 53.6 °F 52.7 °F 97% 30.08 in 4.0 mi East 4.6 mph - 0.04 in Rain Rain
5:35 PM 53.1 °F 52.7 °F 99% 30.08 in 4.0 mi East 6.9 mph - 0.06 in Rain Rain
5:55 PM 53.1 °F 52.9 °F 99% 30.09 in 5.0 mi ENE 5.8 mph - 0.07 in Rain Rain
6:15 PM 52.9 °F 52.7 °F 99% 30.09 in 7.0 mi NE 4.6 mph - N/A Rain Light Rain
6:35 PM 52.9 °F 52.7 °F 99% 30.09 in 7.0 mi ENE 8.1 mph - 0.01 in Rain Rain
6:55 PM 52.7 °F 52.2 °F 98% 30.08 in 7.0 mi ENE 8.1 mph - 0.02 in Rain Light Rain
7:15 PM 52.3 °F 51.8 °F 98% 30.07 in 10.0 mi ENE 9.2 mph - 0.01 in Rain Light Rain
7:35 PM 52.2 °F 51.6 °F 98% 30.08 in 10.0 mi East 11.5 mph - 0.01 in   Light Drizzle
7:55 PM 52.2 °F 51.4 °F 97% 30.08 in 10.0 mi ENE 6.9 mph - 0.01 in   Overcast
8:15 PM 51.8 °F 51.1 °F 97% 30.08 in 10.0 mi ENE 10.4 mph - N/A   Overcast
8:35 PM 51.8 °F 50.9 °F 97% 30.09 in 10.0 mi East 11.5 mph - N/A   Overcast
8:55 PM 51.4 °F 50.9 °F 98% 30.09 in 10.0 mi ENE 11.5 mph - N/A   Overcast
9:15 PM 51.3 °F 50.5 °F 97% 30.08 in 10.0 mi ENE 9.2 mph - N/A   Overcast
9:35 PM 51.1 °F 50.4 °F 97% 30.08 in 10.0 mi East 6.9 mph - N/A   Overcast
9:55 PM 50.9 °F 50.2 °F 97% 30.07 in 10.0 mi East 9.2 mph - N/A   Overcast
10:15 PM 50.9 °F 50.0 °F 97% 30.08 in 10.0 mi East 8.1 mph 16.1 mph N/A   Overcast
10:35 PM 50.9 °F 50.0 °F 97% 30.09 in 10.0 mi ENE 6.9 mph - N/A   Overcast
10:55 PM 50.9 °F 49.8 °F 96% 30.08 in 10.0 mi East 10.4 mph - N/A   Overcast
11:15 PM 50.9 °F 50.0 °F 97% 30.09 in 10.0 mi East 8.1 mph 17.3 mph N/A   Overcast
11:35 PM 50.9 °F 50.0 °F 97% 30.09 in 10.0 mi East 6.9 mph - N/A Rain Light Rain
11:55 PM 51.1 °F 50.0 °F 96% 30.10 in 10.0 mi ESE 8.1 mph - N/A Rain Light Rain